Regional Weather Roundup
Issued by NWS Charleston, SC

Current Version | Previous Version | Graphics & Text | Print | Product List | Glossary On
Versions: 1 2 3 4 5 6 7 8 9 10 11 12 13 14 15 16 17 18 19 20 21 22 23 24 25 26 27 28 29 30 31 32 33 34 35 36 37 38 39 40 41 42 43 44 45 46 47 48 49 50
950
ASUS42 KCHS 190727
RWRCHS

REGIONAL WEATHER ROUNDUP
NATIONAL WEATHER SERVICE CHARLESTON SC
200 AM EST THU JAN 19 2017

NOTE: "FAIR" INDICATES FEW OR NO CLOUDS BELOW 12,000 FEET WITH NO
SIGNIFICANT WEATHER AND/OR OBSTRUCTIONS TO VISIBILITY.

NOT ALL STATIONS ARE QUALITY CONTROLLED. USE DATA WITH CAUTION...
ESPECIALLY DEWPOINT OBSERVATIONS.

SCZ027-030-031-034>040-042>050-190800-
...SOUTHEAST SOUTH CAROLINA...

CITY           SKY/WX    TMP DP  RH WIND       PRES   REMARKS
N CHARLESTON   CLEAR     59  57  93 CALM      30.02R
WATERFRONT PRK   N/A     60  59  96 VRB2      30.00S
MOUNT PLEASANT LGT RAIN  55  54  94 CALM      30.02R
JOHNS ISLAND   FAIR      61  57  88 W6        30.02R
PINOPOLIS        N/A     57  57 100 CALM      29.93S
MONCKS CORNER  FAIR      52  50  93 CALM      30.03R
SUMMERVILLE    FAIR     N/A N/A N/A CALM      30.03R
BEAUFORT MCAS  CLEAR     60  57  89 W7        30.03S
BEAUFORT ARPT  FAIR      61  57  88 W5        30.04R
HILTON HEAD IS CLEAR     61  59  94 W5        30.04S
WALTERBORO     SUNNY     57  55  94 W6        30.03S
ALLENDALE      FAIR      57  55  94 CALM      30.03S

...SOUTHERN MIDLANDS AND PEE DEE...

CITY           SKY/WX    TMP DP  RH WIND       PRES   REMARKS
GEORGETOWN     FAIR      46  43  87 CALM      30.03S
KINGSTREE      FAIR      43  41  93 CALM      30.05R
ORANGEBURG     CLEAR     55  49  80 CALM      30.03R
BARNWELL       FAIR      54  52  94 CALM      30.04S
AIKEN          FAIR      46  45  93 CALM      30.08S
MANNING        FAIR      46  36  66 NE5       30.03S
COLUMBIA       CLEAR     47  43  86 S5        30.04S
SUMTER         CLEAR     47  37  65 NE9       30.02R
FLORENCE       CLEAR     50  40  68 N7        30.06R
MYRTLE BEACH   CLEAR     55  48  76 E6        30.06S
N MYRTLE BEACH PTCLDY    51  49  92 NE6       30.03S

$$

GAZ063-065-086>088-099>101-113>116-118-119-134>141-150-190800-
...SOUTHEAST GEORGIA...

CITY           SKY/WX    TMP DP  RH WIND       PRES   REMARKS
SAVANNAH ARPT  CLEAR     59  55  87 W3        30.04F
HUNTER AAF     CLEAR     60  60 100 W6        30.02S
FORT STEWART   PTCLDY    63  58  85 W6        30.02S
STATESBORO     MOCLDY    59  59 100 CALM      30.05R
SYLVANIA       PTSUNNY  N/A N/A N/A NW5       30.06R
CLAXTON        FAIR     N/A N/A N/A CALM      30.06R

...CSRA...CENTRAL AND FAR SOUTHEAST GEORGIA...

CITY           SKY/WX    TMP DP  RH WIND       PRES   REMARKS
THOMSON        PTCLDY    52  52  99 CALM      30.10F
AUGUSTA-BUSH   CLEAR     56  51  84 CALM        N/A
AUGUSTA-DANIEL CLEAR     62  48  60 NW7       30.06R
SWAINSBORO     FAIR      59  57  94 MISG      30.06S
VIDALIA        CLEAR     61  61 100 SW3       30.05F
EASTMAN        FOG       54  54 100 CALM      30.09F VSB 1/2
HAZLEHURST     FAIR      61  61 100 CALM      30.05F
ALMA           PTCLDY    55  55 100 CALM      30.06F
WAYCROSS       PTCLDY    59  59 100 W3        30.07S
JESUP          FAIR      61  55  82 W5        30.06S
BAXLEY         FAIR      61  61 100 CALM      30.06F
BRUNSWICK      CLEAR     61  61 100 W3        30.06S
SAINT SIMONS   CLEAR     62  58  86 W5        30.04F

$$

SCZ027-028-034-036>038-045-046-048>050-GAZ119-141-190800-
...LAKE AND SUPPLEMENTAL COASTAL OBSERVATIONS...

STATION/POSITION TIME  TEMP    WIND        PRES    WAVE   SWELL
                       AIR SEA DIR/SP/G            HT/PER HT/PER/DIR
                 (UTC) (F)     (DEG/KT/KT) (MB)    (FT/S) (FT/S/D)
WINYAH BAY       0645   57      50/  5     1016.0S
LAKE MURRAY      0720   54      CALM  /  2 1016.9
ACE BASIN NERRS  0645   58        CALM     1017.0S
FORT PULASKI     0700   63 57  280/  3/  3 1017.4
SAPELO ISLAND    0700   63     290/  5     1017.0

$$

ANZ835-935-AMZ111-154-330-350-352-354-370-450-454-472-190800-
...C-MAN AND BUOY OBSERVATIONS...

STATION/POSITION TIME  TEMP    WIND        PRES    WAVE   SWELL
                       AIR SEA DIR/SP/G            HT/PER HT/PER/DIR
                 (UTC) (F)     (DEG/KT/KT) (MB)    (FT/S) (FT/S/D)
BUOY 41004       0650   67 71  330/  6/  8 1015.6R   3/ 5   2/200/ 5
BUOY 41008       0650   62 60  270/ 10/ 12 1016.7S   1/10   2/ 80/10
FOLLY BEACH CMAN 0700   61     340/  3/  4 1016.9R
CAPERS NEARSHORE 0708   57 55   20/  4/  6 1016.3R
FRIPP NEARSHORE  0708   60 57  270/  6/  8 1016.5S


STATION/POSITION TIME  TEMP    WIND        PRES    WAVE   SWELL
                       AIR SEA DIR/SP/G            HT/PER HT/PER/DIR
                 (UTC) (F)     (DEG/KT/KT) (MB)    (FT/S) (FT/S/D)
5E ST. MARYS GA  0700      63                N/A     1/10
FRYING PAN BUOY  0710   64 71   60/ 10/ 16 1016.5
BUOY 41025       0650   53 75   10/ 14/ 17 1016.4R   5/ 7   3/ 30/ 7
CAPE LOOKOUT NC  0700   51      10/  9/ 10 1016.5F
BUOY 41002       0650   68 72   10/ 16/ 19 1014.8R   8/ 8
BUOY 41010       NOT AVBL
ST AUGUSTINE FL  0700   64 62  260/  5/  7 1018.6F


$$




USA.gov is the U.S. government's official web portal to all federal, state and local government web resources and services.